Wind_Speed
32 32 32 34 38 41 41 40 40 40 40 40 39 36 34 34 34 35 36 37 38 39 40 40 41 41 42 42 43 43 43 44 45 45 45 46 46 47 48 49 50 51 51 52 52 52 52 52 52 51 51 51 52 54 56 58 60 61 62 64 66 66 67 67 66 64 62 60 58 56 55 54 54 53 51 49 47 46 45 44 42 40 39 39 40
35 35 35 37 40 43 44 44 42 41 39 38 37 36 35 36 37 37 38 38 39 40 40 41 41 42 42 42 43 43 43 44 45 46 46 46 47 48 48 49 50 50 51 52 52 52 52 52 51 51 51 52 53 55 57 59 61 63 64 66 67 67 67 67 66 64 63 61 59 57 56 56 55 55 54 52 50 48 47 46 45 43 42 41 41
36 37 38 39 41 43 44 44 42 40 39 39 39 38 38 38 38 38 38 39 40 40 40 41 42 42 43 43 43 43 44 45 45 46 46 47 48 49 49 49 50 51 52 52 52 53 53 52 52 52 52 54 55 57 59 61 63 64 66 67 67 68 68 67 65 64 62 61 60 59 59 58 57 56 55 54 53 51 50 48 47 46 45 44 43
37 38 40 41 42 43 43 43 42 42 42 42 42 40 39 39 38 38 39 40 41 41 42 43 43 43 43 43 44 45 46 46 46 47 48 49 49 49 50 50 51 52 53 53 53 53 53 53 53 53 54 55 57 59 61 63 64 65 67 67 68 68 67 66 65 63 61 60 60 60 60 60 59 57 56 54 53 52 51 51 51 50 49 47 46
37 38 40 42 43 43 44 44 43 43 44 43 42 41 40 39 39 40 41 42 42 43 43 44 43 43 43 44 46 47 47 47 48 48 49 49 49 50 50 51 52 53 54 54 54 54 54 54 54 55 56 57 59 61 63 64 65 67 67 67 67 67 66 65 63 62 61 61 62 62 62 62 61 59 57 55 53 51 50 50 51 52 52 52 49
36 38 39 41 42 42 43 43 43 43 44 43 41 41 40 40 40 40 41 42 43 44 44 44 44 45 46 47 48 48 48 48 47 48 48 50 50 51 51 52 53 54 54 54 55 55 55 55 56 57 58 59 61 62 64 65 67 67 67 67 66 65 64 63 62 62 62 63 64 65 65 64 63 61 58 56 54 52 51 50 50 50 50 52 52
37 37 38 39 40 41 41 42 42 43 43 42 41 41 40 40 40 41 43 44 45 45 46 46 47 47 48 48 48 47 47 47 48 49 50 50 50 51 51 52 53 54 55 55 56 56 57 57 58 59 60 61 62 63 65 66 67 67 67 66 65 64 64 63 62 62 64 65 66 67 67 67 65 63 59 56 53 50 49 48 48 48 47 47 49
40 39 40 40 41 41 41 42 43 44 43 42 42 42 42 42 43 44 45 46 46 47 48 48 48 48 47 47 47 47 47 48 49 50 50 50 50 51 52 53 55 56 56 57 57 57 58 58 59 60 61 62 63 64 66 67 67 67 66 65 64 64 63 62 62 64 65 66 68 68 69 68 66 63 60 57 53 49 46 45 44 44 43 42 43
42 42 42 42 42 42 43 43 44 44 43 43 43 44 44 44 45 45 46 46 47 47 48 48 47 47 47 46 46 47 47 48 49 49 50 50 51 52 53 55 57 58 58 58 59 59 59 59 60 61 62 63 64 65 66 66 66 65 65 64 63 63 62 62 63 65 66 68 69 69 69 68 66 63 60 57 54 50 46 43 41 39 38 38 38
41 43 44 44 44 44 44 45 45 45 44 44 44 44 44 45 45 46 46 47 47 47 47 47 46 46 47 47 47 47 47 48 49 50 51 53 54 54 55 57 59 59 60 60 60 60 60 60 61 62 63 64 65 66 65 65 64 64 63 63 62 61 61 62 64 65 67 68 69 69 68 67 64 61 58 55 53 50 46 42 38 36 34 33 33
40 42 43 44 44 44 45 45 45 45 44 43 43 43 44 44 45 45 46 46 46 46 46 46 46 46 47 47 47 47 48 49 51 53 54 55 56 56 57 59 60 61 61 62 62 61 61 61 63 64 65 65 65 65 64 64 63 62 62 62 61 60 61 62 64 66 67 68 68 68 67 66 63 60 57 54 51 48 45 41 37 34 31 30 29
41 42 43 43 43 43 43 43 43 43 42 42 42 42 43 43 44 44 45 45 45 45 46 46 47 47 47 47 47 49 50 52 54 55 56 57 57 57 59 61 62 62 62 62 61 61 61 62 64 65 66 65 65 64 63 62 61 61 61 60 60 60 61 63 64 66 67 67 68 67 67 65 62 60 57 55 51 47 44 40 36 33 31 29 27
42 43 44 43 43 42 41 41 41 41 41 41 41 41 41 42 43 44 44 44 45 46 46 47 47 47 48 49 50 51 53 54 55 56 57 57 58 59 60 61 62 62 61 61 60 60 62 64 65 66 65 65 64 63 62 61 61 61 60 59 59 60 61 63 64 65 66 66 66 66 66 64 62 60 58 56 53 48 44 39 36 32 30 27 26
44 44 44 44 43 42 41 40 40 39 39 39 39 40 41 42 44 45 45 46 47 48 48 48 48 49 50 51 52 53 54 55 56 57 57 57 58 59 60 61 61 61 61 60 60 61 64 65 65 65 64 64 62 61 60 60 60 60 58 58 58 60 61 63 64 65 65 65 65 65 65 63 61 59 58 56 53 50 45 40 36 32 29 27 25
41 42 42 42 40 39 38 37 37 36 36 38 40 41 43 45 46 47 46 47 47 47 48 48 48 48 50 51 51 53 54 55 56 55 55 57 58 59 60 60 60 60 60 60 61 64 65 65 64 64 63 62 61 60 59 59 59 58 57 57 58 60 62 63 64 64 64 63 64 64 64 64 62 59 57 55 52 49 45 41 37 34 31 28 26
37 38 38 38 37 37 37 36 36 37 38 40 42 43 44 45 44 44 43 44 45 46 47 47 47 47 48 49 51 53 54 54 54 54 56 57 58 58 59 59 60 60 61 62 64 65 65 64 63 63 62 60 59 58 59 59 59 57 56 57 58 60 62 63 63 63 62 61 62 63 64 64 63 61 58 55 51 47 42 38 35 32 29 27 26
34 32 32 34 34 35 36 37 38 38 39 40 40 40 42 42 41 40 41 42 43 44 44 45 46 47 48 50 52 54 54 54 54 56 57 57 57 57 58 59 60 62 63 64 65 64 64 63 63 61 60 59 58 58 59 60 58 57 56 57 58 60 62 62 62 61 59 58 60 62 64 64 64 62 59 56 53 49 43 38 33 30 28 25 24
39 37 36 38 38 38 38 38 39 39 38 39 36 33 36 41 42 42 43 42 42 43 45 47 49 50 52 54 55 55 55 56 56 57 57 57 56 57 58 60 61 62 63 63 63 63 63 63 62 60 58 57 57 58 60 60 57 56 56 57 58 60 61 61 60 58 57 56 58 60 62 63 64 63 60 57 54 50 46 41 37 33 29 26 23
48 47 46 46 45 43 40 39 38 36 36 36 33 30 33 38 42 45 44 43 45 48 52 53 53 54 55 56 57 56 56 56 56 57 57 56 56 57 59 60 61 62 63 63 63 63 62 61 60 58 56 56 57 59 60 59 56 55 56 57 58 60 60 60 58 56 54 54 56 58 60 62 63 62 60 57 54 50 46 41 38 35 32 29 25
48 51 52 51 48 44 40 38 35 31 31 30 28 29 34 39 43 46 46 46 49 53 54 54 55 56 57 56 55 55 56 57 57 57 57 57 57 59 60 61 63 64 64 64 63 62 61 59 57 56 56 56 58 60 60 57 55 55 56 57 59 59 60 59 56 54 53 53 54 56 58 59 60 61 60 57 53 50 46 41 37 35 33 31 28
43 48 50 47 43 40 40 38 34 30 31 31 29 31 36 40 43 46 48 49 52 54 55 55 56 55 55 54 54 56 58 59 58 58 57 57 58 60 61 63 65 66 65 63 61 59 58 57 56 55 56 57 59 60 57 55 54 55 56 57 59 59 59 57 55 53 52 52 53 54 55 57 58 58 58 56 53 50 46 42 38 34 32 30 28
42 44 44 42 39 37 38 37 35 34 35 37 35 34 37 42 45 47 49 51 53 54 55 55 56 55 55 55 56 57 59 60 59 58 57 58 61 63 64 65 67 66 63 61 59 58 58 57 56 57 58 59 59 58 55 53 53 54 56 57 59 59 58 56 54 52 51 51 51 52 53 54 55 56 56 55 53 50 47 44 40 36 34 32 30
45 45 45 43 39 35 34 34 36 37 38 39 38 36 38 44 48 50 51 53 55 55 55 56 57 57 57 57 58 59 60 59 58 58 58 61 64 66 66 67 67 64 62 61 61 61 60 59 59 58 58 58 56 54 53 52 53 54 55 57 58 58 57 55 54 52 51 50 50 51 51 52 53 54 54 54 53 51 49 46 43 39 36 34 32
44 46 47 47 43 36 32 33 36 37 38 40 41 40 40 45 50 52 54 55 57 56 57 58 59 58 58 59 60 61 60 58 58 59 61 65 68 68 67 68 66 63 62 62 63 63 62 60 59 58 56 54 52 52 52 52 53 54 56 57 57 57 56 55 54 52 51 50 50 50 50 51 51 52 52 52 52 52 50 48 44 41 38 35 33
42 47 48 48 46 41 37 36 37 37 37 39 42 42 43 46 51 54 55 56 57 57 57 58 59 60 60 62 62 61 59 58 60 62 65 68 69 69 68 67 65 63 63 64 64 63 61 59 57 55 52 51 51 51 52 52 53 55 56 57 57 57 56 55 53 52 51 50 50 50 51 51 51 51 51 51 51 51 50 48 45 42 39 36 34
40 45 47 48 48 46 43 42 41 40 41 44 46 46 46 48 52 56 56 55 55 56 57 59 62 63 63 63 62 61 60 61 63 65 68 71 70 69 68 66 64 64 64 65 65 63 61 58 55 53 51 51 51 51 52 52 54 55 56 56 56 56 55 54 53 52 51 51 50 51 51 51 51 50 50 50 50 50 50 49 47 44 41 37 35
40 43 45 48 49 49 47 46 45 44 44 45 45 45 45 47 50 53 55 55 56 58 60 62 63 63 63 63 63 62 63 64 66 68 71 72 70 68 66 65 64 65 65 66 65 63 60 57 55 53 52 52 52 51 51 52 54 55 55 55 55 55 54 54 53 53 52 51 51 51 52 52 51 51 50 49 49 50 50 49 48 46 43 40 36
40 42 43 45 48 48 47 46 46 45 44 44 42 42 43 45 48 51 54 56 58 59 60 61 63 64 64 65 65 65 66 67 69 71 72 71 68 66 64 64 65 66 66 66 65 63 60 57 55 53 53 52 52 51 51 52 53 54 54 54 54 53 53 53 53 53 52 52 51 52 52 52 52 51 50 50 50 50 50 50 49 48 47 44 40
39 41 43 45 47 47 47 48 50 50 47 43 41 43 46 48 50 53 56 57 58 60 62 64 65 66 65 65 66 67 68 70 72 73 72 69 66 65 65 65 66 66 67 67 66 63 60 57 55 54 53 52 51 51 51 52 53 53 53 53 53 53 53 53 54 54 54 53 52 52 52 52 52 51 51 51 50 50 50 50 49 49 48 47 45
41 42 43 45 46 45 45 47 50 51 49 44 42 44 48 51 53 56 59 60 61 63 65 66 66 65 65 66 68 70 71 72 72 71 69 67 66 66 65 66 67 67 68 68 65 63 60 57 55 53 52 51 50 50 51 52 52 52 53 53 53 53 53 54 54 55 55 54 54 53 53 52 52 52 52 52 52 51 51 50 50 49 49 49 47
45 45 46 46 46 46 47 48 49 49 48 47 48 51 51 51 54 57 59 60 62 64 65 66 66 67 68 69 71 72 73 72 70 68 68 67 66 66 66 67 68 68 69 67 65 62 59 56 53 52 50 49 49 49 50 52 52 52 52 53 53 53 53 54 55 56 56 56 55 54 53 53 53 52 53 53 53 53 52 52 51 50 50 50 49
47 49 50 49 49 50 52 53 53 52 49 50 54 57 58 57 58 58 58 60 62 64 65 67 69 70 72 72 73 73 72 70 69 68 67 67 66 67 67 68 68 69 68 66 63 60 57 54 52 50 49 48 49 49 50 52 52 52 53 53 53 54 54 55 56 57 58 57 56 55 54 54 53 53 54 54 54 54 55 54 53 52 51 50 50
48 50 52 53 53 55 56 57 58 57 55 54 57 60 63 64 65 65 64 65 67 69 71 72 73 74 74 73 73 72 70 69 68 68 67 67 67 68 69 69 69 68 67 64 60 57 54 52 50 49 48 48 49 50 51 52 53 53 53 53 54 54 55 56 57 58 59 58 57 56 55 55 54 54 55 55 56 56 57 57 56 55 53 52 52
50 51 52 53 54 56 58 59 60 60 60 60 60 62 63 65 66 67 68 70 71 72 73 73 73 73 72 71 70 70 69 68 68 68 68 69 69 69 69 69 68 67 64 59 56 54 52 50 49 48 48 49 50 51 52 53 53 54 54 54 55 55 56 57 57 58 60 60 59 58 56 56 55 55 56 57 57 57 58 59 59 58 57 56 55
51 52 52 52 53 55 56 58 58 59 59 60 60 61 62 63 64 65 67 68 70 70 71 70 70 70 69 69 69 69 69 68 69 69 70 70 70 70 69 68 67 64 59 55 53 52 51 49 48 48 48 49 50 52 53 54 54 54 55 55 55 56 57 58 59 60 61 61 61 59 58 57 57 57 57 58 58 59 60 61 61 61 59 58 58
53 53 53 53 53 54 55 55 56 57 58 59 60 61 63 65 66 66 67 68 69 70 70 70 69 69 69 69 69 70 69 69 70 71 71 71 71 70 69 67 64 60 56 53 51 51 49 48 48 48 49 50 51 52 53 54 54 55 55 56 56 57 58 59 60 61 62 63 62 60 59 58 58 58 59 60 60 61 62 63 63 62 61 60 59
56 55 55 55 55 55 56 56 57 58 59 60 62 63 65 66 67 67 68 69 69 69 69 69 69 69 69 70 70 71 71 71 72 72 71 71 70 69 67 64 61 56 53 51 50 49 48 48 49 49 50 52 53 53 54 55 56 56 57 57 57 58 59 60 61 63 64 64 63 61 60 59 59 60 61 62 62 63 64 66 66 65 63 61 61
58 58 58 57 57 57 58 58 59 60 61 62 64 65 66 67 68 68 69 70 70 69 69 69 70 70 70 71 71 71 72 72 72 71 70 69 68 67 64 61 57 54 52 51 50 49 49 49 50 51 52 53 54 54 55 56 57 58 58 59 59 60 61 62 63 64 65 65 63 62 61 60 60 61 62 63 64 65 66 68 69 69 67 64 63
60 60 60 59 59 59 60 61 61 62 62 63 65 67 68 69 69 70 71 71 71 70 69 69 70 70 71 71 71 71 71 71 70 69 68 67 66 64 60 57 54 52 51 50 51 50 50 51 51 52 53 54 54 55 56 57 58 59 60 60 61 62 63 64 65 66 66 65 64 62 62 61 61 62 63 65 66 67 69 70 71 71 69 67 65
62 62 62 61 61 61 61 62 62 63 64 65 66 67 68 70 72 73 73 72 71 70 70 70 70 70 70 70 70 70 70 69 68 67 66 65 63 60 57 55 53 51 51 51 52 52 52 52 53 53 53 53 54 55 57 59 60 61 62 62 63 64 65 66 67 67 67 65 63 62 62 62 62 63 65 66 67 69 71 72 72 72 71 69 68
64 64 64 64 63 63 63 63 63 64 65 66 66 67 69 71 73 74 75 74 72 71 71 70 70 70 69 68 68 68 68 68 67 65 64 62 59 57 55 54 53 52 52 53 54 54 54 54 54 54 54 54 56 57 58 60 61 62 63 64 65 66 68 68 69 68 67 66 64 63 63 63 64 65 66 67 69 71 73 74 74 73 71 70 70
65 65 66 66 65 65 64 64 64 65 66 66 67 68 69 71 73 74 75 74 73 72 72 71 70 70 68 67 67 67 67 67 66 64 61 58 56 55 54 53 52 52 52 53 54 55 55 55 55 56 56 57 58 59 60 61 63 64 65 66 67 69 70 70 70 69 67 66 65 64 64 64 65 67 68 69 71 72 74 75 76 74 72 71 70
67 66 67 67 67 67 66 66 66 66 67 67 68 69 70 71 73 74 74 74 74 74 73 71 70 69 68 67 67 67 67 66 65 63 60 58 56 56 55 53 52 52 52 53 54 55 57 57 58 58 59 59 60 61 62 63 64 66 67 68 70 71 71 71 71 69 68 66 65 65 65 66 67 68 70 72 73 74 76 77 77 75 73 71 70
68 67 67 68 68 68 68 68 68 68 68 69 69 70 71 71 71 72 73 73 73 73 72 71 70 69 68 68 68 67 66 65 63 62 60 59 58 58 56 55 54 53 53 54 56 58 60 61 61 61 62 63 63 64 65 66 67 68 69 70 72 73 73 72 71 70 68 67 67 67 68 68 69 70 72 73 75 76 78 78 76 74 73 71 67
68 68 68 68 69 70 70 70 70 70 69 69 70 70 70 70 69 70 71 72 72 71 70 69 69 68 67 67 67 64 62 61 61 61 61 61 61 60 58 57 57 57 57 58 60 62 63 64 64 65 65 66 67 67 68 69 69 70 71 73 74 75 75 74 72 71 69 68 69 69 70 71 71 72 73 75 77 78 78 77 76 74 72 67 62
70 70 69 70 70 71 71 71 70 69 68 68 68 68 68 68 68 69 70 71 72 71 69 68 67 66 66 66 65 61 58 59 60 62 63 63 63 62 60 60 60 61 62 62 63 65 66 67 67 68 69 69 70 70 71 71 72 73 74 75 76 76 76 75 73 72 71 71 72 72 73 73 74 75 76 78 79 78 77 75 74 71 67 61 56
70 69 68 68 69 70 69 68 68 67 67 67 67 67 67 67 68 69 70 70 69 67 66 65 65 64 63 63 62 62 61 61 62 63 64 64 64 63 62 62 63 64 65 67 68 69 69 70 70 71 72 72 72 72 73 74 75 76 77 78 78 77 77 75 74 74 74 74 75 75 75 76 77 79 80 81 80 77 74 72 69 65 61 56 53
67 66 66 65 66 66 66 66 65 65 65 65 65 65 65 65 65 66 65 64 63 62 61 61 62 61 60 60 61 63 64 64 64 64 65 65 64 64 64 65 66 67 69 70 71 71 71 72 72 73 73 74 74 75 76 77 78 79 79 79 79 78 78 77 76 77 77 77 77 77 78 79 80 82 82 81 79 75 71 67 63 59 56 54 53
62 61 61 60 60 61 62 61 61 60 60 60 60 60 60 60 60 59 59 58 58 57 57 57 57 58 58 59 61 63 64 64 64 64 65 65 64 65 66 67 68 69 71 73 74 74 74 74 74 75 76 77 78 79 79 80 81 81 81 81 81 80 80 79 79 79 80 79 79 80 81 82 83 83 82 80 77 73 68 64 60 58 56 55 53
55 55 54 54 54 55 55 55 54 55 55 55 55 55 55 55 54 54 54 54 54 53 53 53 54 55 57 58 58 59 61 62 62 63 64 64 65 66 67 68 69 71 72 74 76 77 77 78 78 79 80 80 81 81 82 82 83 83 83 83 83 82 82 82 82 82 82 81 81 82 83 83 83 81 79 76 73 69 65 63 61 60 58 56 55
51 50 50 50 50 50 50 50 50 51 52 52 52 51 52 52 51 51 51 51 51 51 51 51 52 54 55 55 56 56 58 60 61 61 63 64 65 66 67 68 70 71 72 74 77 78 80 81 81 82 82 82 83 83 84 85 85 85 85 85 85 85 85 84 84 84 83 83 84 84 84 82 80 77 74 71 69 66 65 64 63 61 59 58 57
Wind_Direction
234 235 235 233 230 232 236 241 246 253 261 266 270 274 277 280 283 287 289 290 291 291 292 293 293 294 296 297 299 300 301 301 301 302 304 306 309 311 313 313 313 314 315 315 316 316 315 315 315 315 315 314 314 314 316 317 317 319 320 321 322 323 322 322 321 321 320 320 319 318 317 316 315 314 313 311 308 305 301 296 290 283 276 270 265
232 232 232 232 231 233 237 242 248 254 260 264 268 272 277 281 285 289 291 291 291 292 292 293 294 295 297 299 300 301 301 301 302 303 305 307 309 311 313 313 313 313 314 315 316 316 315 315 315 315 315 315 315 316 317 317 318 320 321 322 322 322 322 321 321 321 320 319 319 318 317 317 316 315 314 312 309 306 302 297 291 285 278 271 264
234 233 234 234 235 237 241 244 250 255 260 264 268 273 278 282 286 289 290 290 291 292 293 294 295 297 299 300 301 301 301 302 303 304 306 308 310 311 312 312 312 313 315 316 316 316 315 315 315 315 315 315 316 317 317 318 319 321 322 322 322 322 321 321 321 320 320 319 319 319 319 318 317 315 314 312 309 306 302 297 292 286 280 273 266
237 238 238 239 240 242 245 248 252 257 262 265 270 275 279 283 286 288 289 290 292 293 295 296 297 298 299 300 300 301 302 303 304 306 307 308 310 311 312 312 313 314 315 316 316 316 315 315 315 315 316 316 317 317 318 319 320 321 322 322 322 322 321 321 320 319 319 319 320 319 318 317 316 315 313 311 308 304 299 295 291 287 282 276 269
241 242 244 244 245 247 249 252 256 260 264 268 272 276 280 283 286 288 289 290 292 293 295 296 297 297 297 298 299 301 302 304 305 307 308 309 311 312 312 312 313 315 316 316 316 315 315 314 315 315 316 316 317 318 319 320 321 322 322 322 322 321 320 320 319 319 320 320 320 319 318 316 316 315 314 311 307 302 297 292 288 284 281 278 273
244 247 249 250 251 252 254 257 260 263 267 271 275 278 281 284 286 288 289 291 292 294 295 295 296 296 296 297 299 302 304 305 307 308 309 311 311 312 312 313 314 315 316 315 315 314 314 314 315 315 315 316 317 318 320 320 321 322 322 322 321 320 320 319 320 321 321 321 320 319 318 318 317 317 315 313 309 305 300 295 290 284 280 277 274
247 249 252 254 256 257 259 262 264 267 270 274 277 280 282 284 286 288 290 291 292 293 294 294 295 295 296 298 301 303 304 306 307 309 310 310 311 312 313 314 315 315 315 315 314 314 314 314 315 315 316 317 318 319 320 321 321 321 321 321 320 320 320 320 321 322 322 321 320 320 319 319 319 318 316 313 310 306 302 297 293 288 283 278 274
250 252 255 257 259 261 263 266 268 271 273 277 279 281 283 285 286 288 290 291 291 292 293 293 295 296 298 300 301 303 304 306 307 308 309 310 312 313 313 314 314 315 315 314 314 314 314 314 315 315 316 317 318 320 320 321 321 321 321 320 319 319 320 322 323 323 322 321 321 320 320 320 320 320 319 316 314 310 306 301 296 291 285 279 273
254 256 258 260 262 265 266 268 271 273 276 278 280 282 284 286 287 289 289 290 291 291 292 293 295 296 298 300 301 303 305 306 307 308 309 311 313 313 313 313 314 315 315 314 314 314 314 314 315 315 316 318 319 320 320 320 320 320 319 319 319 320 322 324 324 323 322 322 321 321 321 322 323 323 322 320 318 315 312 307 302 296 289 282 275
259 260 262 264 266 267 269 270 272 274 277 279 281 284 285 287 288 288 289 290 290 290 291 293 294 296 297 299 301 303 304 305 306 308 310 311 313 313 313 313 314 314 314 314 315 314 314 314 315 316 317 318 319 319 320 320 319 319 319 319 320 322 324 324 324 323 323 322 322 322 322 323 325 325 324 322 321 319 316 312 307 301 293 286 278
264 265 265 267 268 269 270 272 274 276 278 281 283 285 287 287 287 287 287 287 288 288 290 292 294 295 297 299 301 303 304 305 306 308 310 311 312 312 312 312 313 314 314 315 314 314 314 315 315 316 317 318 318 319 319 319 319 318 318 319 321 324 325 325 324 324 323 323 323 323 324 325 327 327 326 325 324 322 320 317 313 307 300 292 283
266 267 267 268 269 270 272 273 275 277 280 282 285 286 286 285 285 285 285 286 287 288 290 292 293 295 297 299 301 302 303 305 306 308 310 310 310 311 311 312 313 314 314 314 314 314 314 315 315 316 316 317 318 319 318 318 318 318 319 321 323 325 325 325 325 325 324 324 324 324 325 327 329 330 330 329 328 327 325 322 318 313 307 299 290
268 268 269 269 269 270 272 273 275 279 282 284 285 284 283 283 283 283 284 286 287 289 290 292 293 295 298 299 301 302 303 305 306 307 308 308 309 310 311 312 313 314 314 313 313 314 314 315 315 316 316 317 318 318 317 317 317 318 320 322 324 325 325 325 326 325 325 325 325 326 327 329 331 333 333 332 331 330 328 325 322 317 311 304 296
270 268 267 267 268 269 271 274 277 281 282 282 281 280 280 280 281 282 284 286 288 289 290 292 295 297 298 300 300 302 303 304 305 306 306 307 309 310 311 312 313 313 313 313 313 314 314 315 315 316 316 317 317 317 317 317 318 319 321 323 324 325 326 326 326 326 326 326 326 327 328 330 333 335 335 335 334 333 331 328 325 320 315 309 301
269 268 266 266 267 269 272 275 279 280 281 281 280 280 280 281 282 285 287 289 290 291 293 295 297 298 298 299 300 302 303 304 305 306 307 308 310 311 311 311 312 313 313 312 313 314 314 315 315 316 316 316 316 316 316 317 318 320 322 324 325 326 326 327 328 328 327 327 328 328 330 332 335 337 337 337 337 335 333 330 328 325 321 315 309
273 271 269 268 269 271 274 277 280 282 283 283 283 283 283 283 285 287 288 289 289 291 293 293 294 295 295 297 300 302 303 304 304 305 307 309 310 310 311 311 312 312 312 312 313 314 315 315 315 315 315 316 316 316 316 317 319 321 322 324 325 327 327 328 329 328 328 328 329 329 331 333 336 338 339 339 338 337 334 331 328 325 322 317 312
273 272 270 269 271 275 278 281 283 285 284 283 285 286 284 282 283 285 287 287 288 289 289 290 291 292 292 296 300 302 303 304 305 306 308 310 310 310 310 311 311 312 312 313 314 315 315 314 314 315 315 315 315 315 316 318 319 321 323 324 326 328 328 329 329 329 329 329 330 331 332 334 336 338 340 340 340 339 336 334 330 327 323 319 313
259 266 269 272 277 282 285 285 284 283 281 281 283 283 279 280 284 288 289 288 287 287 288 289 291 291 292 295 299 301 303 305 306 307 308 309 309 309 310 310 312 313 314 315 315 315 314 314 314 314 314 314 313 314 317 318 319 321 323 325 327 328 329 329 329 329 330 330 331 332 333 335 336 338 340 342 342 341 339 336 334 331 328 323 318
259 266 271 275 279 284 284 283 282 281 282 285 286 281 273 276 283 289 290 288 287 288 289 290 291 291 293 296 299 301 303 304 305 306 306 307 308 309 311 312 314 315 315 315 315 314 314 313 313 313 312 312 313 315 317 318 319 322 324 326 328 329 329 329 329 330 331 331 332 333 334 335 337 338 340 342 343 343 341 338 336 333 331 327 322
265 269 272 275 277 279 278 277 276 279 283 286 288 285 278 275 278 283 285 285 285 286 288 290 291 293 295 298 299 300 301 302 303 304 305 306 308 310 312 313 315 315 315 315 314 313 313 313 312 311 311 311 313 316 317 318 320 322 325 327 328 329 329 329 330 330 331 331 332 334 335 336 338 339 340 342 343 344 343 340 337 335 332 329 326
266 266 268 270 271 272 272 270 269 273 276 277 279 281 278 274 275 278 281 282 283 285 288 291 293 294 295 296 296 297 298 299 300 302 304 306 308 311 312 313 315 315 315 315 314 314 314 313 312 311 311 312 314 316 317 318 320 323 325 327 328 329 329 330 330 331 331 332 333 334 336 337 339 340 340 342 343 345 344 342 339 336 334 331 327
255 254 256 260 262 263 264 264 263 265 269 272 274 276 275 273 274 275 276 277 279 283 287 289 291 292 292 293 295 296 297 297 299 301 303 306 309 311 312 314 315 315 315 316 316 315 315 314 312 311 311 312 313 315 316 318 321 323 325 327 328 328 330 330 331 331 331 331 333 334 336 338 339 340 341 342 343 345 346 345 343 340 338 335 331
246 246 248 252 255 256 259 261 262 262 265 268 269 270 271 271 271 271 272 274 277 280 282 285 287 288 290 292 293 294 295 297 299 300 302 306 309 311 312 313 315 315 315 315 315 314 314 313 312 311 311 312 313 314 316 318 321 324 325 326 327 328 330 331 331 330 330 331 332 333 335 337 339 341 342 343 344 346 347 348 346 343 340 338 335
246 248 247 248 248 247 250 256 258 260 263 266 268 269 268 267 267 267 268 271 274 277 279 282 284 286 288 290 291 292 294 296 297 299 302 306 309 310 311 312 313 313 314 314 314 314 313 312 312 311 311 311 313 314 317 319 322 324 325 326 327 329 330 331 331 330 330 330 331 332 334 336 339 341 343 344 346 347 348 349 348 345 341 339 336
245 248 248 248 246 243 244 249 253 255 257 261 263 265 264 262 263 265 267 271 274 275 277 280 282 284 286 287 289 290 292 294 296 297 301 305 308 309 309 310 310 311 312 314 314 313 312 312 312 311 311 311 313 315 318 320 322 323 325 326 328 330 331 331 330 329 329 329 330 331 333 335 338 341 344 346 348 348 348 348 348 347 344 340 337
239 244 245 245 245 244 242 246 250 251 252 253 255 257 258 259 262 266 269 271 273 274 275 277 280 282 283 285 287 289 290 293 294 297 301 304 306 306 307 308 308 309 311 313 313 312 311 311 310 310 310 311 314 316 318 320 321 323 324 326 328 330 330 330 329 328 328 328 329 330 332 334 337 340 343 346 348 348 348 348 348 348 347 343 338
237 241 243 243 244 243 242 244 248 251 253 254 255 256 256 258 260 264 266 268 270 273 275 276 278 280 281 283 285 286 288 291 293 296 300 302 304 304 305 305 306 308 310 311 311 310 309 308 308 308 309 311 314 316 318 319 321 322 324 327 328 329 329 328 328 327 327 327 328 329 330 333 336 339 342 345 347 348 349 349 349 348 347 345 341
239 241 244 244 244 244 243 243 246 249 253 256 259 259 258 257 258 260 263 266 268 270 272 274 276 278 280 282 284 285 287 289 292 295 298 300 302 303 303 303 304 306 308 310 310 309 307 306 306 306 307 310 313 315 317 319 320 322 324 326 327 327 326 326 326 326 326 326 327 328 329 332 334 337 340 342 345 348 349 349 349 349 348 346 343
239 239 242 245 245 246 246 246 247 249 251 255 260 261 260 258 258 258 260 262 265 268 271 274 276 278 280 281 283 284 286 289 292 294 297 298 300 301 301 301 303 305 307 308 308 307 306 305 304 305 306 309 312 314 316 317 319 321 322 324 325 325 324 324 324 324 324 325 326 327 329 330 333 336 338 340 343 346 347 348 349 349 348 347 345
242 241 242 246 247 248 248 250 251 252 250 251 255 258 258 258 258 258 259 262 265 269 271 273 275 277 279 281 282 284 287 289 291 293 295 297 298 299 299 301 303 304 306 307 306 305 304 303 303 304 306 308 311 313 315 316 317 319 321 322 323 323 323 323 322 322 323 324 325 327 328 329 331 334 337 339 341 343 345 346 347 348 348 348 346
244 243 244 246 248 248 248 249 251 251 249 248 250 253 255 257 258 259 261 264 266 268 270 272 274 277 280 281 283 285 287 289 291 293 295 296 297 297 299 300 302 303 305 305 304 303 303 302 303 304 305 307 310 312 313 315 316 317 319 320 321 322 323 322 321 321 321 322 324 326 327 328 330 333 335 337 339 341 342 344 345 346 347 347 346
246 245 245 246 247 247 247 247 249 250 248 247 249 251 253 256 258 259 261 263 265 267 269 272 275 278 280 281 283 285 287 289 291 292 294 295 295 297 298 300 301 303 304 304 303 302 301 301 302 303 304 307 309 311 312 313 314 315 317 318 319 321 321 321 321 320 320 321 323 325 326 327 329 332 334 335 337 338 340 341 343 344 345 345 345
249 249 249 249 250 250 250 250 251 251 251 251 252 254 255 256 258 260 261 263 265 267 270 272 275 277 279 281 283 285 287 289 290 291 292 293 295 296 298 299 301 303 303 302 301 300 300 300 301 302 304 306 308 310 311 312 313 314 315 316 318 319 320 321 320 319 319 320 321 323 324 326 328 330 332 334 335 337 338 339 340 341 342 343 343
253 253 253 253 254 256 257 257 256 257 257 258 259 260 261 260 261 262 263 264 267 269 271 273 275 277 279 281 283 285 287 288 290 291 292 293 294 296 297 299 301 302 302 301 300 299 299 299 300 302 304 306 308 309 309 310 311 312 313 315 317 318 319 320 320 319 318 319 320 321 323 324 327 329 330 332 333 335 336 337 338 339 340 340 341
255 256 256 256 257 258 260 261 261 261 261 262 263 264 264 264 265 265 266 267 269 271 273 275 277 279 281 283 284 285 287 288 289 290 291 292 294 295 297 299 300 301 300 300 299 298 298 299 300 302 304 306 307 307 308 309 310 311 312 313 315 316 318 319 319 318 318 318 318 320 321 323 325 327 328 330 332 333 334 335 336 336 337 338 339
257 257 257 257 258 259 260 261 262 262 263 263 263 264 265 266 267 268 269 270 272 273 275 277 279 281 282 283 284 285 286 287 288 289 290 292 293 295 297 298 299 299 299 298 298 297 298 299 301 302 304 305 305 306 307 307 308 309 310 312 313 315 316 317 317 317 317 316 317 318 319 321 323 325 327 329 330 331 332 333 334 334 334 335 336
258 258 258 258 259 259 260 261 262 263 264 264 265 265 266 268 269 270 271 272 273 275 277 279 280 281 282 283 284 285 286 287 287 288 290 292 293 295 296 297 297 297 297 296 296 296 297 299 300 302 302 303 304 305 306 306 307 308 309 311 312 314 315 316 316 316 316 316 316 316 318 320 322 324 326 327 329 330 331 331 331 332 332 332 333
259 259 260 260 260 261 262 263 264 265 265 266 267 267 268 269 270 271 272 273 274 276 278 279 280 281 281 282 284 285 285 286 287 289 290 292 293 294 295 295 295 295 295 294 294 295 297 298 299 300 301 302 304 304 305 306 307 307 308 310 312 313 314 314 315 315 315 314 314 315 316 318 320 322 324 326 327 328 329 329 329 330 330 330 331
261 261 261 262 262 263 264 264 265 266 267 268 268 269 270 271 271 272 272 273 275 277 278 279 280 281 282 283 284 285 286 287 288 289 290 291 292 292 292 292 292 293 293 293 294 295 296 297 298 299 301 302 303 304 305 305 306 307 308 309 311 312 313 313 313 313 313 313 313 313 315 317 319 321 323 324 326 327 327 327 327 327 327 328 328
262 262 262 263 263 264 264 265 266 267 267 268 269 270 272 273 274 274 275 276 277 278 279 280 281 281 282 283 284 285 286 287 288 289 289 290 290 290 290 290 291 291 291 292 293 294 295 296 297 298 300 302 303 304 304 305 306 306 307 308 309 311 312 312 312 312 312 311 312 312 314 316 318 320 321 323 324 325 325 325 325 325 325 326 326
263 263 263 264 264 265 265 266 266 267 268 269 270 271 272 273 274 276 277 278 279 279 280 280 281 281 282 283 284 285 286 286 287 287 288 288 288 288 289 290 291 291 291 292 292 293 294 295 296 297 298 300 301 302 303 304 305 306 306 307 309 310 311 311 311 311 311 310 311 312 313 316 317 318 319 321 322 323 322 322 322 322 323 324 324
263 264 265 266 266 267 267 267 267 268 268 269 270 271 272 273 274 275 277 278 279 279 279 279 279 280 281 282 283 283 284 284 285 285 285 284 285 287 289 290 291 292 292 293 293 293 295 296 296 296 297 298 299 301 302 303 304 305 306 307 309 310 310 310 310 310 309 309 310 312 313 315 316 317 318 319 320 321 320 320 320 320 321 322 322
263 264 265 266 267 267 267 268 268 268 269 269 270 271 271 272 273 274 275 276 276 276 276 277 278 279 280 281 282 282 282 282 283 282 282 282 284 286 289 290 292 292 293 293 294 296 297 297 297 297 298 298 299 300 301 302 303 304 306 307 309 309 309 309 309 309 309 309 310 312 313 314 314 316 317 318 319 319 318 318 318 318 319 320 319
264 264 265 266 266 267 268 268 268 269 269 270 270 270 271 271 272 273 273 274 275 275 277 277 278 279 280 280 280 280 280 281 282 282 283 284 286 287 289 290 291 292 293 295 296 298 299 299 299 299 299 299 300 301 302 302 303 304 306 307 308 309 309 309 309 309 309 310 310 311 312 312 313 315 316 317 317 317 316 315 316 317 317 317 316
265 265 265 266 267 267 268 268 269 269 269 269 270 270 270 270 270 271 271 272 273 275 276 276 277 277 278 277 277 277 278 279 280 281 283 285 286 287 288 290 292 293 294 296 297 298 298 298 299 299 300 300 301 302 302 303 304 305 306 307 308 308 309 309 309 309 309 309 309 310 310 311 313 314 315 315 315 314 314 314 315 315 315 314 314
265 265 266 266 267 267 268 268 269 269 269 269 269 268 268 268 268 269 269 270 272 273 274 275 275 274 274 274 274 275 274 274 275 277 280 282 283 285 287 289 291 292 293 295 295 296 297 297 298 299 300 300 301 301 302 303 304 305 306 307 307 308 309 309 309 308 308 308 308 309 310 311 313 314 314 313 312 312 312 313 314 313 313 312 312
265 265 265 265 266 266 267 267 267 267 267 267 267 267 267 267 267 267 268 269 271 272 273 272 272 272 272 271 271 271 270 270 271 274 277 279 282 285 287 288 289 290 292 293 294 295 296 297 297 298 298 299 300 301 303 304 304 305 305 306 308 308 308 308 308 308 307 308 308 309 310 312 312 312 311 310 310 310 311 312 312 311 311 311 310
266 265 265 265 265 265 265 265 265 265 265 265 266 266 266 266 266 267 268 269 270 270 269 269 269 269 270 269 268 268 269 271 272 274 276 279 282 284 285 286 287 289 290 292 293 294 294 295 296 296 297 299 301 302 303 303 303 304 305 307 307 308 307 307 307 306 306 307 308 310 311 311 311 310 309 309 309 310 311 310 310 309 309 309 308
265 265 265 264 264 263 263 263 264 264 264 264 264 264 265 265 266 267 268 268 268 268 268 268 268 267 267 268 268 269 271 273 274 275 277 280 282 283 284 285 287 288 290 291 293 294 294 295 297 298 299 300 301 301 302 302 303 305 306 306 307 307 306 306 305 305 306 307 309 309 309 308 308 307 308 308 309 309 309 309 308 308 308 307 307
266 265 265 264 263 263 263 263 263 263 263 263 263 263 264 265 266 266 266 267 268 268 267 267 267 266 266 268 271 273 274 275 276 277 278 280 281 283 284 285 287 288 289 290 292 293 295 296 297 298 299 299 300 300 301 303 304 305 305 305 305 305 305 304 304 305 306 307 307 307 306 305 305 306 307 307 307 307 307 307 307 307 307 306 306
267 266 266 265 265 265 264 264 263 263 263 263 263 264 264 264 265 265 265 266 267 268 268 269 269 269 269 271 273 275 276 276 278 279 279 280 281 283 284 285 286 287 289 290 291 293 294 295 296 297 297 298 299 301 302 303 304 304 304 304 304 303 303 303 304 305 305 305 304 303 302 303 304 305 306 306 306 306 306 306 306 305 306 305 305
Height
10686 10688 10690 10692 10693 10694 10693 10694 10694 10694 10694 10694 10694 10695 10697 10697 10697 10697 10697 10696 10696 10695 10694 10693 10692 10691 10690 10690 10689 10687 10686 10683 10681 10679 10677 10675 10672 10669 10666 10663 10659 10657 10654 10652 10649 10646 10643 10640 10637 10634 10631 10628 10625 10621 10617 10612 10608 10604 10600 10596 10591 10586 10582 10577 10572 10568 10563 10559 10555 10552 10548 10543 10539 10535 10533 10530 10528 10525 10522 10519 10518 10517 10516 10516 10515
10683 10685 10686 10688 10689 10690 10690 10690 10691 10691 10690 10690 10690 10692 10693 10693 10693 10693 10692 10692 10691 10691 10691 10689 10688 10687 10686 10685 10684 10683 10681 10679 10677 10674 10672 10670 10667 10665 10662 10659 10655 10653 10650 10648 10645 10642 10638 10635 10632 10629 10626 10623 10619 10615 10611 10606 10602 10598 10594 10589 10585 10580 10575 10570 10564 10559 10555 10550 10547 10544 10540 10536 10532 10528 10524 10522 10519 10517 10514 10511 10509 10507 10507 10507 10506
10679 10681 10682 10683 10685 10686 10686 10687 10687 10686 10686 10685 10686 10688 10689 10689 10689 10689 10688 10687 10687 10687 10686 10685 10683 10682 10681 10680 10679 10678 10677 10675 10672 10669 10666 10664 10663 10660 10657 10654 10651 10648 10646 10643 10640 10637 10634 10630 10627 10624 10621 10618 10614 10609 10605 10601 10596 10592 10588 10583 10578 10573 10567 10562 10557 10552 10547 10542 10538 10534 10531 10528 10525 10521 10517 10513 10510 10508 10505 10502 10499 10497 10497 10496 10497
10676 10677 10678 10680 10681 10682 10682 10682 10682 10682 10681 10681 10683 10685 10685 10685 10685 10684 10684 10683 10683 10683 10682 10680 10678 10676 10675 10675 10674 10673 10672 10670 10667 10664 10661 10659 10658 10655 10652 10649 10646 10644 10641 10638 10635 10632 10629 10625 10622 10619 10616 10612 10608 10603 10599 10595 10591 10586 10582 10577 10572 10566 10560 10555 10550 10546 10541 10536 10532 10528 10524 10520 10518 10515 10511 10507 10503 10499 10496 10493 10489 10487 10485 10485 10486
10672 10673 10674 10676 10677 10677 10678 10678 10677 10677 10677 10678 10680 10681 10681 10681 10680 10680 10679 10678 10678 10678 10677 10675 10673 10671 10670 10669 10669 10668 10666 10664 10662 10659 10656 10654 10652 10650 10647 10644 10641 10639 10636 10633 10630 10627 10623 10620 10616 10613 10610 10606 10602 10597 10593 10588 10584 10580 10576 10570 10565 10559 10554 10549 10544 10539 10534 10529 10525 10521 10517 10513 10509 10506 10503 10499 10495 10491 10487 10484 10480 10477 10474 10473 10473
10668 10669 10670 10672 10672 10673 10674 10673 10673 10672 10673 10675 10676 10676 10676 10676 10675 10675 10674 10673 10673 10672 10671 10670 10669 10667 10665 10664 10663 10662 10660 10658 10656 10654 10651 10649 10647 10644 10641 10639 10636 10634 10631 10628 10625 10621 10618 10614 10611 10607 10604 10601 10596 10591 10587 10582 10578 10574 10569 10564 10558 10553 10548 10543 10537 10532 10527 10522 10517 10512 10508 10504 10500 10497 10493 10489 10484 10479 10475 10471 10469 10467 10464 10462 10460
10664 10665 10666 10667 10668 10669 10669 10669 10668 10668 10670 10671 10672 10672 10671 10671 10670 10670 10669 10668 10667 10667 10666 10665 10664 10662 10660 10659 10657 10656 10654 10653 10651 10649 10646 10644 10642 10639 10636 10633 10631 10629 10626 10623 10619 10616 10612 10608 10605 10601 10598 10594 10590 10586 10581 10576 10571 10567 10562 10557 10552 10547 10542 10536 10531 10525 10520 10515 10509 10504 10499 10494 10490 10487 10483 10479 10475 10470 10465 10460 10457 10455 10453 10452 10450
10661 10662 10663 10663 10664 10665 10665 10664 10664 10664 10666 10667 10667 10667 10666 10666 10665 10664 10663 10663 10662 10660 10659 10658 10658 10656 10654 10653 10651 10650 10649 10647 10645 10643 10641 10638 10636 10633 10630 10628 10626 10624 10621 10617 10614 10610 10606 10602 10599 10595 10592 10588 10584 10580 10575 10570 10565 10560 10556 10551 10546 10541 10535 10530 10524 10519 10513 10508 10502 10497 10491 10486 10481 10476 10471 10467 10463 10460 10456 10451 10447 10444 10442 10441 10440
10657 10658 10659 10660 10661 10661 10660 10659 10659 10660 10662 10663 10662 10662 10661 10660 10659 10659 10658 10657 10656 10654 10653 10652 10651 10650 10648 10647 10646 10645 10643 10641 10640 10638 10635 10633 10630 10628 10625 10623 10621 10618 10615 10612 10608 10604 10600 10596 10593 10589 10586 10583 10579 10574 10570 10565 10560 10555 10550 10545 10540 10535 10529 10524 10518 10513 10507 10501 10495 10490 10484 10479 10473 10467 10461 10456 10451 10448 10445 10442 10438 10435 10433 10431 10431
10654 10655 10655 10656 10656 10656 10655 10655 10655 10656 10657 10657 10657 10656 10655 10654 10653 10653 10652 10651 10650 10648 10647 10646 10645 10643 10642 10641 10640 10639 10638 10636 10634 10632 10630 10627 10625 10622 10620 10617 10615 10613 10610 10606 10602 10599 10595 10591 10587 10583 10580 10577 10573 10569 10564 10560 10555 10550 10545 10540 10534 10529 10523 10518 10513 10507 10501 10495 10489 10483 10478 10472 10467 10461 10455 10450 10444 10439 10436 10432 10429 10427 10425 10423 10422
10650 10650 10650 10651 10651 10651 10651 10650 10650 10651 10652 10651 10651 10650 10649 10648 10647 10646 10646 10645 10644 10642 10641 10640 10639 10638 10637 10636 10635 10634 10632 10631 10629 10626 10624 10621 10619 10617 10614 10612 10609 10607 10604 10600 10596 10593 10589 10585 10581 10577 10574 10571 10568 10563 10559 10554 10549 10544 10539 10534 10529 10523 10518 10513 10507 10501 10495 10489 10483 10477 10471 10466 10460 10454 10449 10443 10438 10433 10428 10425 10422 10419 10417 10416 10415
10645 10645 10645 10645 10646 10645 10645 10645 10645 10645 10646 10646 10645 10644 10643 10642 10641 10640 10640 10639 10638 10637 10636 10634 10633 10633 10632 10630 10629 10628 10627 10625 10623 10621 10619 10616 10614 10611 10609 10606 10604 10601 10598 10594 10591 10587 10584 10580 10576 10571 10568 10565 10562 10558 10553 10548 10544 10539 10534 10529 10523 10518 10513 10508 10502 10496 10490 10483 10477 10471 10465 10460 10454 10447 10441 10436 10431 10426 10422 10418 10415 10412 10410 10409 10408
10640 10640 10640 10640 10640 10640 10640 10640 10640 10640 10640 10640 10639 10638 10637 10636 10635 10634 10634 10633 10632 10631 10630 10629 10628 10627 10626 10625 10624 10623 10621 10619 10618 10616 10614 10611 10608 10606 10603 10600 10598 10595 10592 10588 10585 10581 10578 10574 10570 10565 10561 10559 10556 10552 10547 10543 10538 10534 10529 10524 10518 10513 10508 10503 10497 10491 10484 10478 10472 10466 10460 10454 10448 10442 10435 10429 10424 10420 10416 10413 10410 10407 10405 10403 10401
10634 10634 10634 10634 10634 10634 10634 10635 10635 10636 10635 10634 10633 10632 10631 10630 10629 10628 10628 10627 10626 10625 10624 10624 10623 10622 10621 10620 10618 10617 10616 10614 10613 10611 10608 10606 10603 10600 10597 10594 10592 10589 10586 10583 10579 10576 10572 10568 10564 10560 10556 10553 10550 10546 10542 10537 10533 10528 10524 10519 10514 10508 10503 10498 10492 10486 10479 10473 10467 10460 10455 10449 10444 10438 10431 10425 10419 10414 10410 10407 10404 10402 10399 10398 10396
10627 10627 10628 10628 10629 10630 10630 10631 10631 10631 10630 10628 10627 10626 10624 10623 10622 10622 10621 10620 10620 10619 10618 10618 10617 10616 10615 10614 10613 10612 10611 10609 10607 10605 10603 10600 10597 10594 10591 10589 10586 10583 10580 10577 10574 10570 10566 10562 10558 10554 10550 10547 10544 10540 10536 10532 10527 10523 10518 10514 10509 10504 10498 10493 10487 10481 10474 10468 10462 10455 10449 10444 10439 10433 10428 10422 10417 10411 10406 10402 10399 10396 10394 10392 10391
10621 10622 10623 10624 10625 10625 10626 10627 10626 10626 10625 10623 10621 10620 10618 10617 10616 10615 10615 10615 10614 10613 10613 10612 10611 10611 10610 10609 10608 10607 10605 10604 10602 10600 10597 10595 10592 10589 10586 10583 10580 10578 10575 10572 10568 10564 10560 10557 10553 10549 10545 10541 10538 10534 10531 10526 10522 10517 10513 10509 10504 10498 10493 10487 10482 10476 10470 10464 10457 10450 10444 10439 10433 10428 10423 10418 10413 10409 10405 10401 10397 10394 10391 10389 10387
10615 10617 10619 10620 10621 10622 10622 10623 10622 10621 10619 10617 10615 10614 10611 10610 10610 10610 10609 10609 10609 10608 10607 10607 10607 10606 10605 10604 10603 10602 10600 10599 10597 10594 10592 10589 10586 10583 10581 10578 10575 10572 10569 10566 10562 10558 10554 10551 10547 10544 10540 10536 10532 10529 10525 10521 10517 10512 10508 10503 10499 10493 10488 10482 10477 10472 10466 10460 10453 10447 10440 10435 10429 10424 10419 10413 10408 10403 10400 10397 10394 10391 10388 10386 10384
10612 10614 10615 10616 10617 10619 10619 10618 10617 10616 10614 10611 10610 10608 10604 10602 10603 10603 10603 10603 10603 10602 10602 10602 10602 10601 10600 10600 10599 10597 10595 10593 10591 10588 10586 10584 10581 10578 10576 10573 10570 10567 10564 10560 10556 10553 10549 10545 10542 10538 10535 10531 10527 10523 10519 10515 10511 10507 10502 10498 10494 10489 10483 10478 10473 10467 10462 10456 10450 10444 10437 10431 10426 10420 10415 10410 10404 10399 10394 10391 10388 10386 10384 10382 10380
10612 10612 10612 10613 10614 10615 10615 10613 10612 10611 10609 10606 10606 10604 10600 10598 10597 10597 10598 10598 10597 10596 10596 10596 10596 10596 10595 10594 10593 10592 10590 10588 10585 10583 10580 10578 10576 10573 10571 10568 10564 10561 10558 10554 10551 10547 10544 10540 10537 10533 10530 10527 10523 10519 10514 10509 10505 10501 10497 10493 10489 10484 10479 10474 10469 10464 10458 10453 10447 10441 10435 10429 10423 10417 10412 10408 10402 10397 10393 10388 10385 10382 10379 10378 10376
10615 10611 10607 10609 10609 10609 10609 10608 10608 10608 10606 10604 10604 10602 10598 10596 10594 10593 10593 10593 10592 10591 10590 10590 10590 10590 10589 10589 10588 10586 10584 10582 10580 10577 10575 10573 10571 10568 10565 10562 10559 10556 10552 10549 10545 10542 10538 10535 10531 10528 10525 10522 10518 10514 10509 10504 10500 10496 10491 10487 10483 10479 10475 10470 10465 10460 10455 10450 10445 10439 10433 10427 10421 10415 10410 10406 10401 10396 10391 10387 10383 10380 10377 10374 10372
10615 10607 10601 10602 10602 10603 10603 10604 10606 10607 10603 10601 10602 10600 10596 10594 10592 10590 10589 10588 10587 10585 10584 10584 10584 10584 10583 10583 10582 10581 10579 10576 10574 10571 10569 10568 10565 10562 10560 10557 10553 10550 10547 10544 10540 10537 10533 10530 10527 10523 10520 10517 10513 10509 10505 10500 10496 10491 10487 10482 10478 10474 10470 10465 10461 10456 10452 10447 10442 10437 10431 10425 10420 10414 10408 10403 10399 10394 10389 10385 10381 10378 10375 10372 10370
10605 10599 10596 10595 10596 10597 10598 10600 10604 10604 10599 10596 10596 10596 10593 10590 10588 10587 10585 10583 10582 10580 10579 10579 10579 10578 10578 10577 10577 10576 10573 10571 10568 10566 10564 10562 10560 10557 10554 10551 10548 10544 10541 10538 10535 10532 10529 10526 10522 10519 10515 10511 10508 10504 10500 10496 10492 10487 10483 10478 10474 10470 10465 10461 10456 10452 10448 10444 10440 10435 10430 10424 10418 10413 10407 10401 10397 10392 10387 10382 10378 10374 10371 10369 10366
10595 10593 10591 10590 10590 10592 10595 10597 10598 10597 10594 10591 10590 10592 10591 10586 10583 10582 10580 10578 10577 10576 10575 10575 10574 10573 10572 10572 10571 10570 10567 10565 10562 10560 10558 10557 10554 10551 10548 10545 10542 10539 10536 10533 10530 10528 10524 10521 10517 10513 10510 10506 10502 10498 10495 10491 10487 10483 10479 10474 10470 10465 10461 10456 10452 10448 10444 10440 10436 10432 10428 10423 10417 10411 10405 10400 10394 10389 10385 10380 10376 10372 10369 10366 10363
10591 10588 10586 10585 10585 10588 10592 10592 10590 10589 10588 10586 10585 10587 10587 10583 10578 10576 10574 10573 10572 10571 10570 10569 10569 10568 10567 10566 10565 10564 10562 10560 10557 10555 10553 10551 10548 10545 10542 10540 10537 10534 10531 10528 10525 10522 10519 10516 10512 10508 10505 10501 10497 10493 10490 10486 10482 10478 10475 10470 10466 10461 10457 10452 10448 10444 10440 10436 10432 10429 10425 10420 10415 10409 10404 10398 10392 10387 10382 10379 10375 10371 10367 10364 10361
10585 10581 10580 10580 10581 10583 10586 10585 10582 10582 10582 10581 10580 10581 10581 10579 10574 10570 10569 10568 10567 10566 10565 10564 10563 10563 10562 10561 10559 10558 10557 10554 10551 10549 10547 10545 10543 10540 10537 10534 10532 10529 10526 10523 10520 10517 10514 10511 10507 10503 10500 10496 10493 10489 10485 10481 10477 10474 10470 10466 10461 10457 10452 10448 10444 10439 10436 10432 10429 10425 10421 10417 10412 10407 10401 10396 10390 10386 10381 10377 10373 10370 10366 10362 10359
10576 10573 10573 10573 10574 10577 10579 10578 10576 10576 10576 10575 10574 10574 10574 10573 10569 10565 10563 10563 10562 10562 10561 10559 10558 10557 10556 10555 10554 10552 10551 10549 10546 10544 10542 10540 10537 10535 10532 10529 10526 10524 10521 10518 10515 10512 10509 10506 10502 10499 10495 10491 10488 10484 10480 10476 10472 10469 10465 10461 10456 10452 10448 10444 10440 10436 10432 10428 10425 10421 10417 10412 10408 10404 10399 10394 10389 10385 10380 10375 10371 10368 10365 10361 10358
10567 10565 10566 10567 10568 10569 10572 10571 10570 10570 10570 10569 10569 10569 10568 10567 10563 10560 10559 10558 10558 10557 10556 10554 10553 10552 10551 10550 10548 10547 10546 10544 10541 10539 10537 10535 10532 10529 10527 10524 10521 10518 10516 10512 10509 10506 10503 10500 10497 10494 10490 10487 10483 10479 10476 10472 10468 10464 10460 10456 10452 10448 10444 10440 10436 10432 10429 10425 10421 10417 10413 10409 10404 10400 10396 10391 10387 10382 10378 10373 10369 10365 10362 10359 10356
10560 10560 10561 10561 10562 10563 10565 10565 10563 10563 10563 10563 10563 10563 10562 10560 10558 10556 10555 10554 10553 10552 10550 10548 10547 10546 10545 10544 10542 10541 10540 10538 10536 10534 10532 10529 10527 10524 10521 10519 10516 10513 10510 10507 10504 10501 10498 10495 10492 10489 10485 10482 10478 10475 10471 10468 10464 10460 10456 10452 10448 10444 10440 10436 10432 10429 10425 10421 10418 10414 10409 10405 10401 10396 10392 10388 10384 10380 10375 10371 10367 10362 10359 10355 10353
10553 10554 10555 10555 10556 10558 10559 10558 10556 10556 10557 10557 10557 10556 10554 10553 10552 10551 10549 10548 10547 10546 10544 10542 10541 10540 10539 10538 10536 10535 10534 10533 10531 10529 10526 10524 10521 10519 10516 10514 10510 10507 10504 10502 10498 10495 10492 10489 10486 10483 10480 10477 10473 10470 10467 10463 10459 10456 10452 10448 10444 10440 10436 10432 10429 10425 10421 10418 10414 10410 10406 10402 10397 10393 10389 10384 10380 10377 10373 10369 10365 10361 10357 10353 10349
10547 10548 10549 10549 10550 10552 10552 10551 10550 10550 10551 10552 10551 10548 10546 10546 10545 10544 10543 10542 10542 10540 10538 10536 10535 10534 10534 10532 10530 10529 10528 10527 10525 10523 10520 10518 10516 10513 10510 10508 10505 10502 10499 10496 10493 10489 10486 10484 10481 10478 10475 10472 10468 10465 10462 10458 10455 10451 10448 10444 10440 10436 10432 10428 10424 10421 10417 10414 10410 10406 10402 10398 10394 10390 10385 10381 10377 10373 10369 10365 10362 10358 10354 10351 10347
10542 10542 10542 10543 10544 10545 10546 10545 10544 10544 10546 10547 10543 10540 10539 10539 10538 10538 10538 10537 10536 10534 10532 10530 10529 10529 10528 10526 10524 10523 10521 10520 10519 10517 10514 10511 10509 10506 10504 10502 10499 10496 10492 10489 10486 10483 10480 10478 10475 10472 10469 10466 10463 10460 10457 10454 10450 10447 10443 10440 10436 10432 10428 10424 10420 10416 10412 10409 10405 10402 10398 10394 10390 10386 10382 10377 10374 10369 10365 10362 10358 10354 10351 10348 10344
10536 10536 10536 10537 10538 10538 10537 10537 10537 10538 10540 10540 10535 10531 10532 10533 10532 10532 10532 10531 10529 10527 10525 10524 10524 10523 10521 10520 10518 10516 10514 10513 10512 10510 10507 10505 10502 10500 10497 10495 10493 10490 10486 10483 10480 10477 10474 10472 10469 10467 10464 10461 10458 10455 10452 10449 10445 10442 10439 10435 10431 10427 10423 10419 10415 10411 10408 10404 10401 10397 10394 10390 10386 10382 10378 10374 10370 10366 10362 10358 10354 10351 10347 10344 10341
10530 10530 10530 10531 10531 10530 10529 10529 10531 10532 10533 10533 10530 10527 10526 10526 10526 10526 10526 10525 10523 10521 10519 10519 10518 10516 10515 10513 10512 10510 10508 10506 10505 10503 10500 10498 10495 10493 10491 10489 10487 10484 10480 10477 10474 10471 10468 10466 10464 10461 10458 10455 10452 10450 10447 10444 10440 10437 10434 10430 10426 10422 10418 10415 10411 10407 10403 10399 10396 10393 10389 10385 10381 10377 10373 10370 10366 10362 10358 10354 10350 10346 10343 10339 10337
10523 10523 10523 10524 10524 10523 10522 10523 10524 10526 10526 10526 10524 10522 10521 10521 10520 10520 10519 10518 10516 10514 10513 10512 10511 10510 10508 10507 10505 10503 10501 10500 10498 10495 10493 10490 10488 10486 10484 10482 10480 10477 10474 10471 10468 10465 10463 10460 10458 10455 10453 10450 10447 10444 10441 10438 10435 10432 10428 10425 10421 10417 10413 10410 10406 10402 10398 10394 10391 10387 10384 10380 10376 10373 10369 10365 10361 10358 10354 10350 10345 10341 10337 10334 10331
10515 10516 10516 10517 10516 10515 10515 10515 10517 10518 10518 10518 10517 10515 10514 10513 10513 10512 10511 10510 10508 10507 10506 10505 10504 10503 10501 10499 10497 10495 10494 10493 10490 10487 10485 10483 10481 10479 10477 10475 10473 10470 10467 10465 10462 10459 10457 10455 10452 10449 10447 10444 10441 10439 10436 10433 10430 10426 10423 10419 10416 10412 10408 10404 10401 10397 10393 10389 10386 10382 10378 10375 10371 10367 10364 10360 10356 10353 10349 10345 10342 10338 10333 10330 10326
10508 10508 10509 10509 10509 10509 10508 10508 10508 10509 10510 10509 10509 10508 10506 10505 10504 10504 10503 10501 10500 10499 10498 10498 10496 10495 10493 10491 10489 10488 10487 10485 10482 10479 10478 10476 10474 10472 10470 10468 10465 10463 10461 10458 10456 10453 10451 10449 10446 10444 10441 10438 10436 10433 10430 10427 10424 10421 10417 10414 10410 10406 10403 10399 10395 10391 10388 10384 10381 10377 10373 10369 10365 10362 10358 10355 10351 10347 10343 10340 10337 10333 10330 10326 10322
10500 10501 10501 10502 10502 10502 10501 10501 10501 10501 10501 10500 10499 10499 10498 10496 10496 10495 10494 10493 10491 10491 10491 10490 10489 10487 10486 10484 10482 10481 10479 10477 10474 10472 10470 10468 10466 10464 10462 10460 10458 10456 10454 10452 10450 10447 10445 10442 10440 10437 10435 10432 10430 10427 10424 10421 10418 10415 10411 10408 10404 10400 10397 10393 10390 10386 10382 10378 10375 10371 10368 10364 10360 10356 10352 10349 10345 10341 10338 10334 10330 10327 10324 10321 10317
10492 10493 10494 10494 10495 10495 10494 10493 10493 10493 10492 10491 10490 10489 10488 10488 10487 10486 10485 10483 10483 10484 10484 10483 10481 10480 10478 10477 10475 10473 10470 10468 10466 10464 10463 10460 10458 10456 10455 10453 10451 10449 10448 10445 10443 10441 10439 10436 10434 10431 10429 10426 10423 10421 10418 10415 10411 10408 10405 10402 10398 10394 10391 10387 10384 10380 10376 10373 10369 10365 10362 10358 10354 10350 10346 10342 10339 10335 10332 10328 10324 10320 10317 10314 10311
10485 10485 10486 10487 10487 10487 10486 10486 10485 10485 10484 10483 10481 10479 10478 10478 10477 10476 10475 10475 10476 10476 10476 10475 10473 10472 10470 10469 10467 10464 10461 10459 10458 10457 10455 10452 10450 10449 10448 10446 10444 10442 10440 10438 10436 10434 10432 10429 10427 10425 10422 10420 10417 10415 10412 10409 10405 10402 10399 10395 10391 10388 10384 10381 10377 10374 10371 10367 10363 10359 10355 10352 10348 10344 10340 10337 10333 10329 10326 10322 10319 10315 10311 10308 10304
10477 10477 10478 10478 10479 10479 10479 10478 10477 10476 10476 10474 10473 10472 10470 10468 10466 10465 10465 10466 10468 10468 10467 10466 10465 10463 10461 10460 10457 10455 10452 10451 10450 10449 10447 10444 10443 10441 10440 10438 10437 10435 10433 10431 10429 10427 10425 10423 10420 10418 10416 10413 10411 10408 10406 10402 10399 10395 10392 10388 10385 10381 10378 10374 10370 10367 10364 10361 10357 10353 10349 10345 10342 10338 10334 10330 10327 10323 10319 10316 10313 10310 10306 10302 10298
10468 10468 10468 10469 10470 10471 10470 10470 10469 10468 10467 10466 10465 10464 10463 10460 10458 10456 10455 10456 10457 10458 10457 10456 10455 10453 10452 10451 10449 10447 10444 10442 10441 10441 10439 10437 10435 10434 10432 10431 10429 10428 10426 10424 10421 10419 10417 10416 10413 10411 10409 10407 10404 10402 10399 10395 10392 10388 10385 10381 10377 10374 10370 10367 10364 10360 10357 10353 10350 10346 10343 10339 10335 10331 10328 10324 10320 10317 10313 10309 10306 10303 10300 10296 10292
10458 10459 10459 10459 10460 10460 10461 10461 10460 10459 10458 10457 10457 10456 10455 10453 10450 10449 10448 10448 10448 10447 10447 10446 10445 10444 10444 10443 10441 10439 10437 10435 10434 10433 10431 10429 10428 10426 10425 10424 10422 10421 10419 10416 10414 10412 10410 10408 10406 10404 10402 10399 10397 10394 10391 10388 10385 10381 10377 10374 10370 10366 10363 10360 10356 10353 10350 10346 10342 10339 10336 10332 10328 10324 10320 10316 10313 10310 10306 10302 10299 10296 10292 10289 10285
10448 10449 10450 10450 10450 10450 10450 10451 10450 10450 10449 10449 10448 10447 10446 10444 10442 10441 10440 10439 10438 10437 10437 10437 10437 10436 10436 10435 10433 10431 10429 10427 10426 10425 10423 10422 10421 10419 10418 10416 10415 10413 10412 10410 10407 10405 10403 10401 10399 10396 10394 10392 10389 10386 10383 10380 10377 10373 10370 10366 10363 10359 10355 10352 10348 10345 10342 10338 10334 10331 10328 10325 10321 10317 10312 10308 10305 10302 10298 10295 10291 10288 10284 10281 10278
10438 10439 10440 10440 10440 10440 10440 10440 10440 10440 10440 10440 10439 10438 10437 10436 10435 10432 10430 10429 10428 10427 10428 10428 10428 10429 10428 10427 10425 10422 10420 10419 10418 10416 10415 10414 10413 10412 10410 10409 10407 10406 10404 10402 10400 10398 10395 10393 10391 10388 10385 10383 10381 10378 10375 10372 10369 10365 10362 10358 10354 10350 10347 10343 10340 10337 10333 10330 10326 10323 10319 10316 10313 10309 10305 10301 10298 10294 10291 10287 10283 10280 10276 10273 10270
10429 10430 10430 10431 10430 10429 10429 10429 10430 10430 10430 10430 10429 10428 10428 10427 10425 10423 10421 10419 10418 10419 10420 10420 10420 10420 10419 10417 10415 10413 10412 10411 10409 10408 10407 10406 10405 10404 10403 10401 10400 10398 10396 10394 10393 10390 10387 10385 10382 10380 10377 10374 10371 10369 10366 10363 10360 10357 10353 10350 10346 10341 10337 10334 10331 10327 10324 10321 10318 10314 10311 10308 10304 10300 10297 10294 10290 10287 10283 10279 10274 10271 10268 10264 10261
10419 10420 10421 10421 10420 10419 10418 10419 10420 10420 10420 10420 10419 10418 10418 10417 10416 10414 10412 10411 10410 10411 10412 10412 10412 10411 10410 10408 10406 10405 10404 10403 10401 10400 10399 10398 10397 10396 10395 10394 10392 10390 10388 10386 10384 10382 10379 10376 10374 10371 10368 10365 10363 10360 10357 10354 10351 10348 10344 10341 10337 10332 10328 10324 10321 10318 10314 10311 10308 10305 10302 10298 10294 10290 10288 10285 10282 10279 10275 10271 10266 10262 10259 10256 10253
10408 10409 10410 10411 10410 10409 10408 10409 10410 10410 10410 10409 10408 10408 10408 10408 10406 10405 10404 10403 10403 10404 10404 10404 10402 10402 10401 10400 10398 10397 10396 10394 10393 10392 10391 10390 10389 10388 10387 10386 10384 10381 10379 10377 10375 10373 10370 10368 10365 10362 10359 10356 10354 10351 10348 10344 10341 10338 10335 10331 10327 10323 10319 10315 10311 10308 10304 10301 10298 10295 10291 10288 10284 10280 10277 10275 10272 10269 10265 10262 10258 10254 10251 10248 10245
10397 10398 10399 10400 10400 10399 10399 10399 10399 10400 10400 10400 10399 10398 10398 10397 10397 10396 10396 10396 10396 10396 10395 10394 10393 10392 10392 10391 10390 10388 10386 10386 10385 10385 10384 10383 10382 10381 10379 10377 10375 10373 10370 10368 10365 10363 10361 10359 10356 10353 10350 10347 10344 10341 10338 10334 10331 10328 10324 10320 10317 10313 10309 10305 10302 10298 10295 10292 10288 10285 10281 10278 10274 10270 10267 10264 10260 10257 10255 10252 10249 10246 10243 10241 10238
10388 10388 10389 10390 10390 10389 10389 10389 10390 10390 10390 10390 10389 10389 10389 10388 10388 10389 10388 10388 10388 10388 10387 10386 10385 10384 10383 10383 10381 10380 10379 10379 10378 10377 10376 10375 10374 10373 10371 10369 10367 10364 10361 10358 10355 10353 10351 10349 10346 10343 10340 10337 10333 10331 10328 10324 10321 10317 10313 10309 10305 10302 10299 10296 10292 10289 10285 10282 10278 10275 10271 10268 10265 10261 10256 10252 10249 10246 10244 10242 10239 10237 10235 10233 10230
10379 10379 10380 10381 10380 10380 10380 10381 10381 10381 10380 10380 10381 10381 10381 10381 10381 10381 10380 10379 10379 10379 10379 10378 10378 10377 10376 10375 10374 10374 10373 10372 10371 10370 10368 10367 10366 10364 10362 10360 10358 10356 10353 10350 10347 10344 10341 10339 10336 10333 10330 10327 10323 10320 10317 10313 10309 10305 10302 10298 10295 10292 10289 10285 10282 10278 10275 10272 10269 10266 10262 10259 10255 10251 10247 10242 10239 10236 10234 10232 10230 10228 10226 10224 10221
10371 10371 10372 10372 10372 10372 10373 10373 10373 10372 10372 10372 10372 10373 10373 10373 10373 10372 10372 10372 10371 10371 10371 10371 10370 10369 10369 10368 10367 10367 10366 10364 10363 10362 10360 10359 10357 10356 10354 10352 10350 10347 10345 10342 10338 10335 10332 10330 10327 10324 10321 10317 10313 10310 10306 10302 10298 10294 10291 10288 10285 10281 10278 10275 10271 10268 10264 10262 10259 10256 10253 10249 10245 10241 10237 10233 10230 10227 10225 10223 10220 10218 10216 10214 10212